Atlantic - Newfoundland: Past 24 Hour Conditions

 

Nickerson Bank - 44251

09:00 AM ADT 21 October 2014Buoy position: 46.45N 53.38W
This table is a summary of hourly weather conditions for the past 24 hours.
Date / Time
(ADT)
Wind(knots) Wave height(m) Wave period(s) Pressure(kPa) Air tempC) Water tempC)
21 October 2014
9:00 W 21 gust 27 4.2 11.0 101.8 11 12
8:00 W 23 gust 29 4.6 12.0 101.7 11 12
7:00 W 23 gust 27 4.5 10.0 101.6 11 12
6:00 W 23 gust 31 4.4 11.0 101.5 11 12
5:00 WSW 27 gust 35 4.5 11.0 101.4 11 12
4:00 WSW 23 gust 29 4.8 11.0 101.3 11 12
3:00 WSW 27 gust 33 4.5 10.0 101.2 11 12
2:00 WSW 25 gust 31 4.6 10.0 101.2 11 12
1:00 WSW 21 gust 27 4.6 11.0 101.2 11 12
0:00 WSW 23 gust 27 5.0 11.0 101.1 11 12
20 October 2014
23:00 WSW 25 gust 31 5.1 11.0 101.1 11 12
22:00 WSW 25 gust 31 4.6 10.0 101.0 11 12
21:00 WSW 25 gust 33 4.3 10.0 101.0 11 12
20:00 WSW 23 gust 29 3.9 8.0 100.9 11 12
19:00 SW 23 gust 31 3.6 8.0 100.9 11 12
18:00 WSW 19 gust 23 3.4 8.0 100.8 12 12
17:00 WSW 19 gust 23 3.5 9.0 100.7 12 12
16:00 WSW 19 gust 25 3.5 8.0 100.6 12 12
15:00 SW 19 gust 23 3.4 8.0 100.5 13 12
14:00 SW 23 gust 27 3.5 8.0 100.4 13 12
13:00 SW 19 gust 23 3.3 8.0 100.4 13 12
12:00 SW 21 gust 27 3.9 8.0 100.3 14 12
11:00 S 25 gust 33 3.1 7.0 100.2 15 12
10:00 S 23 gust 29 3.3 8.0 100.1 15 12
9:00 SSE 23 gust 27 2.9 7.0 100.1 15 12
 
Map of Atlantic - Newfoundland marine weather areas Southwestern Grand Banks - 44138 Banquereau - 44139 Tail of the Bank - 44140 Nickerson Bank - 44251 Northeast Burgeo Bank - 44255 Blanc-Sablon Airport Cap Whittle Chevery Natashquan Airport Heath Point Miscou Island Grand Étang Ingonish Beach North Mountain St.Paul Island J.A. Douglas McCurdy Sydney Airport Charlottetown Airport East Point North Cape Argentia Bonavista Burgeo Cape Race Corner Brook Daniel's Harbour Englee Ferolle Point La Scie Port aux Basques Rocky Harbour Sagona Island St. Anthony Airport St. John's Int'l Airport St. Lawrence Stephenville Airport Twillingate Winterland Wreckhouse Cartwright Airport Mary's Harbour Grates Cove Pool's Island Marticot Island Long Pond Îles de la Madeleine Airport
Legend: buoyBuoy land stationLand Station